Saginaw Browne, MI

7:25 AM EDT on October 20, 2017 (GMT -0400)
Saginaw County-Browne

Weather History for KHYX - April, 2014

Change the Weather History Date:

Monday, April 28, 2014

  Actual Average (KMBS) Record (KMBS)
Temperature  
Mean Temperature 48 °F -  
Max Temperature 57 °F 60 °F 78 °F (2003)
Min Temperature 39 °F 38 °F 29 °F (1998)
Degree Days  
Heating Degree Days 17    
Moisture  
Dew Point 30 °F    
Average Humidity 50    
Maximum Humidity 75    
Minimum Humidity 36    
Precipitation  
Precipitation 0.00 in - - ()
Sea Level Pressure  
Sea Level Pressure 29.98 in    
Wind  
Wind Speed 13 mph (East)    
Max Wind Speed 24 mph    
Max Gust Speed 33 mph    
Visibility 10 miles    
Events      
Averages and records for this station are not official NWS values.
T = Trace of Precipitation, MM = Missing Value Source: NWS Daily Summary

Daily Weather History Graph

Daily Weather History Graph

Search for Another Location

Airport or City:

Trip Planner

Search our weather history database for the weather conditions in past years. The results will help you decide how hot, cold, wet, or windy it might be!

Date:

Astronomy

Apr. 28, 2014 Rise Set
Actual Time 6:32 AM EDT 8:33 PM EDT
Civil Twilight 6:01 AM EDT 9:05 PM EDT
Nautical Twilight 5:23 AM EDT 9:43 PM EDT
Astronomical Twilight 4:42 AM EDT 10:24 PM EDT
Moon 6:11 AM EDT (4/28) 8:10 PM EDT (4/28)
Length of Visible Light 15h 03m
Length of Day
14h 01m
Waning Crescent, 0% of the Moon is Illuminated
Apr 28
Waning Crescent
Apr 29
New
May 6
First Quarter
May 14
Full
May 21
Last Quarter

Hourly Weather History & Observations

Time (EDT) Temp. Windchill Dew Point Humidity Pressure Visibility Wind Dir Wind Speed Gust Speed Precip Events Conditions
12:15 AM 42.8 °F 37.0 °F 28.4 °F 57% 30.12 in 10.0 mi ENE 10.4 mph - N/A   Clear
12:35 AM 42.8 °F 37.0 °F 28.4 °F 57% 30.11 in 10.0 mi East 10.4 mph - N/A   Clear
12:55 AM 42.8 °F 37.0 °F 28.4 °F 57% 30.11 in 10.0 mi ENE 10.4 mph - N/A   Clear
1:15 AM 42.8 °F 37.5 °F 28.4 °F 57% 30.10 in 10.0 mi ENE 9.2 mph - N/A   Clear
1:34 AM 42.8 °F 37.0 °F 28.4 °F 57% 30.09 in 10.0 mi ENE 10.4 mph - N/A   Clear
1:55 AM 42.8 °F 38.0 °F 28.4 °F 57% 30.10 in 10.0 mi ENE 8.1 mph - N/A   Clear
2:15 AM 41.0 °F 35.2 °F 28.4 °F 61% 30.10 in 10.0 mi East 9.2 mph - N/A   Clear
2:34 AM 41.0 °F 33.9 °F 28.4 °F 61% 30.07 in 10.0 mi ENE 12.7 mph - N/A   Clear
2:55 AM 41.0 °F 37.1 °F 28.4 °F 61% 30.10 in 10.0 mi East 5.8 mph - N/A   Clear
3:15 AM 39.2 °F 34.2 °F 30.2 °F 70% 30.10 in 10.0 mi ENE 6.9 mph - N/A   Clear
3:34 AM 39.2 °F 33.6 °F 30.2 °F 70% 30.10 in 10.0 mi ENE 8.1 mph - N/A   Clear
4:15 AM 39.2 °F 34.2 °F 30.2 °F 70% 30.09 in 10.0 mi ENE 6.9 mph - N/A   Clear
4:35 AM 39.2 °F 33.0 °F 32.0 °F 75% 30.07 in 10.0 mi ENE 9.2 mph - N/A   Clear
4:55 AM 39.2 °F 34.2 °F 32.0 °F 75% 30.07 in 10.0 mi ENE 6.9 mph - N/A   Clear
5:15 AM 39.2 °F 33.0 °F 30.2 °F 70% 30.07 in 10.0 mi ENE 9.2 mph - N/A   Clear
5:35 AM 41.0 °F 34.3 °F 28.4 °F 61% 30.06 in 10.0 mi ENE 11.5 mph - N/A   Clear
5:55 AM 41.0 °F 33.9 °F 28.4 °F 61% 30.05 in 10.0 mi ENE 12.7 mph - N/A   Clear
6:15 AM 39.2 °F 31.6 °F 28.4 °F 65% 30.05 in 10.0 mi ENE 12.7 mph - N/A   Clear
6:35 AM 39.2 °F 32.5 °F 28.4 °F 65% 30.06 in 10.0 mi ENE 10.4 mph - N/A   Clear
6:55 AM 39.2 °F 33.0 °F 28.4 °F 65% 30.06 in 10.0 mi ENE 9.2 mph - N/A   Clear
7:15 AM 39.2 °F 32.5 °F 30.2 °F 70% 30.06 in 10.0 mi ENE 10.4 mph - N/A   Clear
7:35 AM 41.0 °F 33.9 °F 30.2 °F 65% 30.06 in 10.0 mi ENE 12.7 mph - N/A   Clear
7:55 AM 42.8 °F 36.6 °F 30.2 °F 61% 30.06 in 10.0 mi East 11.5 mph - N/A   Clear
8:35 AM 44.6 °F 37.4 °F 30.2 °F 57% 30.03 in 10.0 mi ENE 16.1 mph - N/A   Clear
8:55 AM 46.4 °F 40.1 °F 30.2 °F 53% 30.04 in 10.0 mi East 15.0 mph - N/A   Clear
9:15 AM 50.0 °F - 30.2 °F 47% 30.03 in 10.0 mi East 20.7 mph 26.5 mph N/A   Clear
9:35 AM 50.0 °F - 30.2 °F 47% 30.04 in 10.0 mi East 19.6 mph 28.8 mph N/A   Clear
9:55 AM 51.8 °F - 30.2 °F 44% 30.04 in 10.0 mi ESE 21.9 mph 25.3 mph N/A   Clear
10:15 AM 51.8 °F - 30.2 °F 44% 30.02 in 10.0 mi East 23.0 mph 27.6 mph N/A   Clear
10:55 AM 53.6 °F - 30.2 °F 41% 30.01 in 10.0 mi East 21.9 mph 33.4 mph N/A   Clear
11:15 AM 53.6 °F - 30.2 °F 41% 30.02 in 10.0 mi East 20.7 mph 29.9 mph N/A   Clear
11:35 AM 55.4 °F - 30.2 °F 38% 30.01 in 10.0 mi East 18.4 mph 32.2 mph N/A   Clear
11:55 AM 55.4 °F - 28.4 °F 36% 30.01 in 10.0 mi East 21.9 mph 32.2 mph N/A   Clear
12:14 PM 57.2 °F - 30.2 °F 36% 30.01 in 10.0 mi East 21.9 mph 29.9 mph N/A   Clear
12:35 PM 55.4 °F - 30.2 °F 38% 30.01 in 10.0 mi East 19.6 mph 32.2 mph N/A   Clear
12:55 PM 55.4 °F - 30.2 °F 38% 30.00 in 10.0 mi ESE 19.6 mph 27.6 mph N/A   Clear
1:35 PM 55.4 °F - 30.2 °F 38% 29.98 in 10.0 mi East 19.6 mph 27.6 mph N/A   Clear
1:55 PM 55.4 °F - 30.2 °F 38% 29.97 in 10.0 mi East 17.3 mph 29.9 mph N/A   Clear
2:14 PM 55.4 °F - 30.2 °F 38% 29.96 in 10.0 mi East 24.2 mph 29.9 mph N/A   Clear
2:35 PM 55.4 °F - 30.2 °F 38% 29.95 in 10.0 mi East 23.0 mph 28.8 mph N/A   Clear
2:55 PM 55.4 °F - 32.0 °F 41% 29.94 in 10.0 mi East 24.2 mph 28.8 mph N/A   Clear
3:15 PM 55.4 °F - 30.2 °F 38% 29.94 in 10.0 mi East 20.7 mph 26.5 mph N/A   Scattered Clouds
3:54 PM 55.4 °F - 30.2 °F 38% 29.92 in 10.0 mi ENE 20.7 mph 28.8 mph N/A   Mostly Cloudy
4:15 PM 55.4 °F - 32.0 °F 41% 29.91 in 10.0 mi East 18.4 mph 24.2 mph N/A   Scattered Clouds
4:35 PM 55.4 °F - 32.0 °F 41% 29.90 in 10.0 mi East 19.6 mph 27.6 mph N/A   Scattered Clouds
5:15 PM 53.6 °F - 32.0 °F 44% 29.91 in 10.0 mi East 21.9 mph 27.6 mph N/A   Light Drizzle
5:35 PM 53.6 °F - 32.0 °F 44% 29.91 in 10.0 mi East 17.3 mph 24.2 mph N/A   Overcast
5:54 PM 53.6 °F - 30.2 °F 41% 29.92 in 10.0 mi East 18.4 mph 21.9 mph N/A   Overcast
6:15 PM 53.6 °F - 30.2 °F 41% 29.93 in 10.0 mi East 15.0 mph 24.2 mph N/A   Overcast
6:35 PM 53.6 °F - 32.0 °F 44% 29.91 in 10.0 mi East 18.4 mph 24.2 mph N/A   Overcast
6:54 PM 53.6 °F - 30.2 °F 41% 29.90 in 10.0 mi East 13.8 mph 19.6 mph N/A   Overcast
7:15 PM 53.6 °F - 30.2 °F 41% 29.89 in 10.0 mi East 19.6 mph 23.0 mph N/A   Overcast
7:35 PM 53.6 °F - 30.2 °F 41% 29.89 in 10.0 mi East 20.7 mph 26.5 mph N/A   Overcast
7:54 PM 53.6 °F - 30.2 °F 41% 29.86 in 10.0 mi East 19.6 mph 28.8 mph N/A   Overcast
8:15 PM 51.8 °F - 30.2 °F 44% 29.85 in 10.0 mi East 18.4 mph 25.3 mph N/A   Overcast
8:35 PM 51.8 °F - 30.2 °F 44% 29.86 in 10.0 mi East 17.3 mph 23.0 mph N/A   Overcast
8:55 PM 51.8 °F - 30.2 °F 44% 29.86 in 10.0 mi East 16.1 mph 24.2 mph N/A   Overcast
9:15 PM 51.8 °F - 30.2 °F 44% 29.87 in 10.0 mi East 13.8 mph 21.9 mph N/A   Overcast
9:35 PM 51.8 °F - 30.2 °F 44% 29.87 in 10.0 mi East 13.8 mph 20.7 mph N/A   Overcast
9:55 PM 51.8 °F - 30.2 °F 44% 29.88 in 10.0 mi East 15.0 mph - N/A   Overcast
10:15 PM 51.8 °F - 30.2 °F 44% 29.88 in 10.0 mi East 10.4 mph - N/A   Overcast
10:35 PM 51.8 °F - 30.2 °F 44% 29.86 in 10.0 mi East 15.0 mph 24.2 mph N/A   Overcast
10:55 PM 51.8 °F - 30.2 °F 44% 29.84 in 10.0 mi East 18.4 mph 24.2 mph N/A   Overcast
11:15 PM 51.8 °F - 30.2 °F 44% 29.86 in 10.0 mi East 12.7 mph 21.9 mph N/A   Overcast
11:35 PM 50.0 °F - 30.2 °F 47% 29.84 in 10.0 mi East 16.1 mph - N/A   Overcast
11:55 PM 50.0 °F - 30.2 °F 47% 29.82 in 10.0 mi East 13.8 mph - N/A   Overcast